Regional Weather Roundup
Issued by NWS

Home | Current Version | Previous Version | Text Only | Print | Product List | Glossary On
Versions: 1 2 3 4 5 6 7 8 9 10 11 12 13 14 15 16 17 18 19 20 21 22 23 24 25 26 27 28 29 30 31 32 33 34 35 36 37 38 39 40 41 42 43 44 45 46 47 48 49 50
017
ASUS44 KLIX 201505
RWRLA
LOUISIANA WEATHER ROUNDUP
NATIONAL WEATHER SERVICE NEW ORLEANS LA
1000 AM CDT SUN APR 20 2014

NOTE: "FAIR" INDICATES FEW OR NO CLOUDS BELOW 12,000 FEET WITH NO
      SIGNIFICANT WEATHER AND/OR OBSTRUCTIONS TO VISIBILITY.
      SKY/WX - SKY CONDITION AND SIGNIFICANT WEATHER.
      TMP - AIR TEMPERATURE.    DP   - DEWPOINT TEMPERATURE.
      RH  - RELATIVE HUMIDITY.  PRES - PRESSURE.
      HX  - HEAT INDEX.         WCI  - WIND CHILL INDEX.

*  THESE STATIONS ARE NOT NWS OR FAA STATIONS AND ARE NOT UNDER
   NWS QUALITY CONTROL.

LAZ040-048-061>063-065-066-069-201600-
SOUTHEAST LOUISIANA

CITY           SKY/WX    TMP DP  RH WIND       PRES   REMARKS
N.O. AUDUBON     N/A     73  58  59 MISG        N/A
N.O. INTL ARPT MOSUNNY   72  60  66 SE9       30.19R
N.O. LAKEFRONT SUNNY     71  60  68 E8        30.20R
N.O. DOWNTOWN* FAIR      73  55  53 SE7       30.20R
SLIDELL        SUNNY     70  58  65 CALM      30.19R
BATON ROUGE    SUNNY     73  54  51 E3        30.19R
BOOTHVILLE     SUNNY     69  60  73 NE6       30.19R
BELLE CHASSE   MOSUNNY   72  58  61 SE7       30.19R
BOGALUSA*        N/A     71  56  58 E5        30.22R
GALLIANO*      SUNNY     73  63  70 NE8       30.18R
NEW ROADS*     FAIR      72  55  54 E5        30.20R
GONZALES*      FAIR      72  56  58 CALM      30.18S
HAMMOND*       SUNNY     72  57  60 S5        30.21S
HOUMA*         SUNNY     72  57  60 CALM      30.18S
PORT FOURCHON* SUNNY     72  61  68 E10       30.19R

$$

LAZ041-044-053-054-201600-
SOUTHWEST LOUISIANA

CITY           SKY/WX    TMP DP  RH WIND       PRES   REMARKS
LAKE CHARLES   MOSUNNY   73  56  54 N5        30.18S
LAFAYETTE      SUNNY     72  56  57 E3        30.19R
PATTERSON      SUNNY     73  57  56 E7        30.21S
SALT POINT       N/A     74  58  57 VRB6      30.17S
NEW IBERIA     SUNNY     73  56  54 NE5       30.20R
CHENAULT AIRPK NOT AVBL

$$

LAZ027-028-201600-
CENTRAL LOUISIANA

CITY           SKY/WX    TMP DP  RH WIND       PRES   REMARKS
FORT POLK      MOSUNNY   71  56  58 CALM      30.19S
ALEXANDRIA INT SUNNY     71  57  61 CALM      30.19R
ALEXANDRIA     SUNNY     74  55  51 E5        30.20R

$$

LAZ001-002-201600-
NORTHWEST LOUISIANA

CITY           SKY/WX    TMP DP  RH WIND       PRES   REMARKS
SHREVEPORT     PTSUNNY   72  59  63 CALM      30.18S
BARKSDALE AFB  MOSUNNY   73  57  57 SW3       30.19S
DTN SHREVEPORT MOSUNNY   71  59  65 CALM      30.19S

$$

LAZ014-016-201600-
NORTHEAST LOUISIANA

CITY           SKY/WX    TMP DP  RH WIND       PRES   REMARKS
MONROE         SUNNY     72  55  55 CALM      30.21S
TALLULAH       SUNNY     70  56  61 E6        30.21R

$$




USA.gov is the U.S. government's official web portal to all federal, state and local government web resources and services.